Theta_e
339 338 340 340 338 337 336 336 335 334 333 333 333 333 332 333 335 335 336 337 337 338 338 339 338 338 338 339 339 337 333 330 329 328 331 336 333 332 331 333 335 335 337
337 337 338 339 339 336 335 335 335 335 334 334 333 332 330 329 328 331 334 336 337 337 337 337 338 339 337 338 337 336 335 333 330 327 329 332 331 335 334 333 335 335 337
338 337 338 338 338 336 336 335 335 335 335 334 334 333 332 331 330 328 328 329 332 335 337 336 337 338 338 337 337 336 335 333 330 325 328 333 330 334 338 335 336 336 336
337 337 337 338 338 336 335 335 335 335 336 336 335 333 333 332 333 333 332 330 328 328 330 333 335 337 338 338 337 336 335 331 326 321 323 327 330 336 338 336 336 337 336
338 337 337 337 337 336 336 335 334 334 334 334 334 334 333 334 334 334 334 333 331 331 329 328 327 329 334 336 337 337 333 330 328 323 325 329 328 334 338 337 336 336 336
337 337 337 336 336 336 335 334 334 333 333 332 331 331 331 331 331 331 331 330 330 329 329 330 331 332 332 331 335 335 334 332 330 327 325 331 333 334 338 337 336 335 334
337 337 337 337 336 335 335 335 334 334 333 333 333 333 333 333 332 332 332 331 330 328 328 327 326 328 328 331 332 332 333 333 331 330 327 327 331 333 335 337 336 335 334
338 340 338 337 337 337 337 336 334 334 333 333 333 333 334 334 334 334 334 334 334 333 333 332 331 330 329 328 326 330 332 332 332 331 329 327 327 330 334 337 336 335 334
335 335 335 335 335 335 334 334 334 333 333 333 332 332 332 332 331 331 331 332 333 333 334 334 333 331 330 329 329 328 326 329 332 331 330 329 328 327 333 336 335 334 335
326 325 324 326 328 329 326 323 322 317 312 310 309 308 306 306 305 305 305 306 307 309 316 326 331 333 332 330 331 329 329 328 328 331 331 330 329 329 331 334 335 333 334
316 315 312 309 307 307 307 306 306 306 305 305 305 305 305 305 305 305 305 305 305 305 305 305 305 308 321 329 330 330 330 329 328 330 331 330 330 330 331 332 333 333 332
312 311 310 308 308 308 308 307 306 306 306 306 305 305 305 305 305 304 304 304 304 304 303 303 303 304 304 305 311 326 329 329 329 329 329 330 330 331 332 332 331 333 333
309 309 308 308 308 307 306 306 306 306 307 307 306 306 305 305 304 303 303 302 302 302 302 302 302 303 304 305 305 306 315 325 327 328 326 328 329 329 332 333 332 331 332
309 308 307 308 308 307 307 307 307 307 306 306 306 305 304 303 302 302 301 301 301 301 301 302 302 303 303 305 307 308 307 308 323 326 327 327 327 329 329 332 332 331 331
308 308 307 307 307 307 307 307 307 306 306 305 304 303 301 301 301 300 300 300 300 300 300 300 301 301 302 302 303 305 307 308 306 310 324 328 328 327 328 330 332 332 332
308 308 307 307 307 307 307 307 306 305 304 303 301 301 300 300 300 300 300 299 299 299 299 299 299 299 300 301 302 303 304 306 307 307 306 314 322 327 328 327 328 330 331
308 307 307 307 306 306 306 306 304 303 302 301 300 299 299 299 299 298 298 298 297 297 297 297 298 298 298 299 300 300 301 303 305 306 307 306 306 313 322 327 327 327 329
307 307 307 307 307 306 305 304 303 301 300 300 299 299 299 298 297 297 297 297 297 297 297 296 296 296 297 297 298 299 299 300 302 303 305 306 306 305 306 309 325 326 327
307 307 307 307 306 306 304 303 302 300 299 299 298 299 298 297 297 297 296 296 295 295 295 295 294 294 295 296 296 297 298 299 300 301 302 303 305 305 305 305 307 313 325
306 307 307 306 305 304 303 302 300 299 298 298 298 298 297 296 295 295 295 295 294 293 293 293 293 293 293 294 295 296 297 298 299 300 301 302 302 303 304 304 305 305 311
304 306 305 304 304 303 302 300 299 298 298 298 298 297 296 295 295 294 294 293 292 292 292 292 293 293 293 293 295 297 297 298 300 300 301 302 304 305 305 306 306 306 306
304 305 304 304 303 302 301 299 298 297 297 298 297 296 295 294 293 292 292 291 291 291 291 292 292 292 293 294 294 294 296 299 301 301 304 304 305 305 306 306 307 306 306
303 303 303 303 302 301 300 298 297 297 297 297 296 295 294 293 292 291 291 290 290 289 290 290 292 292 293 293 294 295 297 299 298 299 301 300 302 303 301 301 303 305 306
302 303 302 301 301 300 298 297 297 297 296 295 294 294 293 292 291 291 290 289 288 288 289 289 290 291 291 292 292 293 294 295 297 297 299 298 298 298 299 300 300 300 302
301 301 301 300 300 298 297 297 297 296 295 294 293 293 292 292 291 290 289 288 287 287 287 288 289 289 290 291 292 292 293 293 294 296 296 297 297 298 298 299 300 300 300
300 300 300 300 299 297 297 296 296 296 295 294 293 292 292 291 290 289 288 287 287 287 287 287 288 288 289 289 290 291 291 292 293 294 295 294 295 295 295 296 296 297 298
Wind_Speed
14 15 13 13 12 10 11 12 11 10 11 10 11 12 12 12 12 12 11 10 8 7 7 7 10 12 9 8 10 9 7 6 4 3 5 6 6 6 7 8 10 11 11
15 16 15 13 13 12 12 12 11 10 10 10 9 9 9 10 10 10 9 9 9 6 6 6 7 9 8 8 11 9 8 7 7 6 7 9 8 8 9 11 14 15 13
15 14 15 14 14 13 12 12 11 10 10 9 8 8 7 7 7 7 7 6 5 5 5 4 3 7 10 9 10 10 9 8 8 7 9 10 9 9 11 13 16 17 18
15 15 15 14 13 13 12 12 11 10 9 8 7 6 6 5 4 4 3 3 2 2 2 2 1 3 7 10 12 12 12 11 10 9 11 11 11 11 13 16 15 14 16
17 16 15 15 13 12 12 11 11 10 9 8 6 5 4 4 3 2 1 1 1 2 2 3 4 4 5 8 10 12 12 11 11 11 11 13 14 15 15 16 17 16 15
17 15 14 14 13 12 11 10 9 8 7 6 6 5 4 3 3 3 3 4 5 5 6 6 7 7 8 9 10 11 13 13 13 14 14 14 15 17 17 18 19 19 18
19 16 15 12 12 11 11 9 9 8 7 6 6 5 4 4 4 4 5 6 6 6 7 8 9 10 12 12 13 14 15 15 16 17 18 18 18 18 19 20 21 22 21
18 16 15 13 11 11 10 9 8 7 6 5 5 4 5 4 4 4 5 6 6 7 8 10 10 11 13 15 16 18 17 19 19 21 22 22 22 22 22 22 23 24 24
15 15 13 13 11 11 11 10 9 8 6 5 4 3 3 2 1 1 2 4 6 8 9 10 13 13 15 17 18 18 20 21 22 25 25 26 26 26 25 26 24 26 25
16 15 15 13 12 12 11 10 10 9 9 9 8 8 7 7 7 8 7 7 7 6 6 9 11 12 15 16 18 19 20 21 24 26 29 30 29 28 28 28 26 27 28
17 16 15 14 13 12 12 11 10 9 9 9 9 8 7 7 6 6 7 8 8 10 11 11 11 11 14 16 18 19 20 22 24 26 29 31 31 31 28 31 30 29 31
20 17 15 14 13 11 10 9 9 8 8 7 6 5 4 5 6 8 9 10 12 13 15 15 16 16 16 16 17 17 20 23 25 28 30 31 32 33 29 30 32 31 33
22 19 16 15 13 11 10 9 8 7 6 4 2 4 5 7 9 11 13 14 16 17 19 19 20 19 19 19 20 20 19 21 23 29 31 32 33 33 32 31 34 33 33
23 20 17 16 14 12 11 9 8 5 4 1 3 6 8 11 13 15 16 17 18 19 20 20 21 23 22 22 22 23 23 22 22 26 29 33 34 36 36 34 34 33 33
25 22 20 18 15 14 12 10 7 4 2 2 4 7 10 12 14 16 17 18 19 20 21 23 24 25 25 25 25 26 27 27 26 27 24 28 36 38 38 39 34 36 33
27 25 21 19 16 14 12 9 7 4 3 3 6 8 10 12 14 16 19 20 20 20 21 22 24 25 27 27 29 29 29 29 30 30 31 34 29 31 41 42 40 39 38
30 26 23 20 17 15 12 9 7 5 4 4 6 8 10 13 15 16 17 18 19 19 21 22 23 24 25 26 27 29 30 30 31 32 33 34 35 38 28 38 42 43 40
32 29 25 22 19 15 12 10 7 5 4 5 7 10 12 13 14 16 17 17 18 19 20 20 21 22 23 25 28 30 31 31 33 34 34 34 36 37 37 38 30 40 44
33 31 27 23 19 16 12 9 7 5 4 5 8 10 12 13 13 15 16 17 18 20 20 20 22 22 25 27 29 28 31 33 34 34 36 37 37 37 39 37 39 36 38
33 32 29 25 20 16 12 9 7 5 4 6 8 10 12 13 14 16 17 18 19 21 22 22 22 23 23 24 27 29 33 33 34 35 35 35 36 37 38 39 40 38 37
31 33 30 26 20 16 13 9 8 6 5 5 9 9 12 14 15 18 18 19 19 19 20 19 20 22 21 22 23 14 20 27 27 29 29 29 28 27 28 30 32 34 39
35 34 29 25 21 16 13 9 5 4 4 8 9 11 12 14 15 17 17 18 18 19 19 17 16 18 16 10 11 15 4 6 9 15 13 14 17 15 18 16 19 24 30
37 36 31 25 21 16 12 9 5 3 4 6 8 12 12 14 15 16 16 17 18 17 17 17 14 14 13 11 11 5 4 4 12 10 11 19 10 12 21 27 24 20 20
36 35 29 25 21 16 13 9 6 3 2 5 11 13 13 14 15 16 15 15 15 15 15 14 11 13 14 14 12 11 14 14 4 7 5 25 34 29 28 29 31 33 31
37 34 29 24 20 16 12 9 6 3 3 7 9 11 12 14 15 15 15 15 15 15 14 14 14 13 12 13 12 12 13 16 19 7 14 12 18 18 21 26 26 24 27
34 31 29 25 20 17 13 9 6 4 4 6 8 11 13 16 17 17 15 14 14 15 15 15 15 16 16 16 16 15 15 11 10 10 10 13 16 23 25 26 26 29 34
Wind_Direction
168 161 163 159 156 152 147 149 143 133 123 117 115 117 114 110 107 110 112 117 123 125 132 149 168 173 180 189 189 186 180 191 201 188 178 184 193 195 195 178 168 166 147
155 161 166 166 156 152 148 151 151 145 136 130 121 116 114 112 112 111 110 111 111 110 128 154 178 194 198 193 195 205 206 212 223 223 208 202 202 192 189 183 174 168 161
157 162 164 166 161 155 152 149 151 150 149 143 136 131 125 115 111 108 109 107 108 103 92 115 168 205 210 216 220 220 228 240 237 239 211 206 204 190 185 187 182 178 173
161 165 165 164 162 157 156 155 153 149 148 151 148 146 140 134 130 121 112 108 112 118 126 122 157 218 226 227 228 231 237 237 236 231 219 215 203 194 193 192 192 188 188
161 165 161 163 165 161 161 162 162 159 157 154 155 156 157 158 168 181 179 227 244 250 252 241 234 236 242 238 236 238 243 247 247 237 228 220 209 202 205 204 199 202 202
154 160 162 164 165 162 162 162 164 165 167 170 175 182 196 209 225 250 265 275 281 278 272 269 266 259 253 245 240 242 248 251 254 249 241 234 227 221 216 213 211 208 210
151 153 157 165 167 169 172 173 173 175 179 186 191 195 205 218 235 247 263 274 278 281 280 279 273 266 261 261 259 253 249 253 257 257 252 245 241 234 226 225 218 214 215
157 152 159 166 165 154 149 156 163 170 175 177 181 186 199 213 227 242 253 263 272 278 281 284 283 282 274 269 263 260 258 253 250 254 256 254 250 245 236 236 226 218 216
152 155 159 160 166 158 155 154 157 155 157 155 143 131 126 116 75 359 335 310 292 283 291 290 284 281 277 276 274 270 264 260 256 255 253 255 256 252 243 240 231 224 220
145 148 148 148 151 149 142 138 136 129 121 116 111 103 95 87 74 62 52 39 24 12 336 307 293 296 285 282 277 273 270 269 263 259 257 257 256 254 247 244 240 230 224
152 155 152 150 148 146 143 138 133 124 116 107 98 88 81 70 53 33 14 359 346 339 333 328 321 314 302 294 280 278 273 266 263 261 260 260 259 258 248 245 245 238 232
164 164 164 160 156 153 151 146 138 132 125 117 102 76 54 27 5 349 339 330 323 319 314 311 306 303 302 302 296 287 277 273 271 266 264 263 261 259 252 246 246 246 236
168 167 168 167 163 161 158 151 142 133 126 114 68 18 357 340 331 325 322 318 317 314 312 309 305 303 300 298 294 295 286 287 281 270 266 265 263 260 254 249 246 242 243
174 170 168 170 167 165 162 156 153 147 138 118 339 331 329 325 322 321 320 319 319 318 315 313 310 306 300 296 293 290 287 283 282 286 278 269 264 260 257 252 247 246 245
179 174 172 174 175 170 169 164 165 170 206 301 317 320 318 318 320 320 319 319 319 317 314 312 310 307 304 300 293 289 286 283 279 277 283 274 271 265 260 255 249 246 245
185 179 175 175 176 177 176 178 185 200 234 283 305 316 324 327 326 323 319 319 319 318 316 313 311 309 304 301 298 293 288 285 281 278 276 272 277 275 267 261 256 250 248
191 181 179 177 179 180 185 190 199 223 253 286 312 328 330 326 322 319 319 319 319 318 318 316 311 307 304 301 299 295 291 286 283 281 276 274 274 271 285 264 264 262 252
187 186 181 182 181 183 189 195 211 235 265 303 323 328 325 323 321 320 322 322 324 323 324 324 323 319 313 308 303 297 294 289 285 280 280 279 274 273 275 272 275 270 263
188 185 184 184 184 186 191 202 219 244 278 309 324 327 325 325 326 324 323 322 323 322 320 319 315 314 312 309 307 303 296 291 287 283 278 276 276 274 272 274 271 275 273
188 187 185 183 184 186 193 203 220 240 269 315 327 331 331 329 325 322 323 323 322 318 315 317 317 316 313 312 309 297 294 292 288 282 279 278 276 274 273 273 276 276 269
187 184 182 180 184 191 191 205 224 234 282 319 333 334 330 328 326 325 324 320 319 317 316 316 317 319 322 322 316 318 302 295 283 281 282 279 278 280 281 282 280 277 273
183 183 181 184 187 191 198 203 217 254 291 325 329 333 331 329 330 328 327 326 325 320 317 319 318 319 317 335 318 305 320 332 12 328 304 303 286 302 299 312 306 295 282
179 182 183 185 186 188 195 199 211 269 304 325 321 328 334 333 332 329 327 326 326 326 321 317 313 307 303 318 327 298 318 302 341 297 306 318 317 330 313 314 315 310 310
183 184 183 184 184 187 192 200 217 246 311 317 319 324 330 332 331 329 326 327 326 323 311 312 311 306 307 300 302 279 271 300 313 309 291 313 306 308 308 306 306 303 308
183 181 182 181 183 187 193 201 207 223 285 300 308 313 321 329 329 329 328 323 313 313 311 307 309 305 296 293 285 283 281 278 276 278 294 294 299 301 309 313 315 314 316
182 179 180 180 182 188 193 197 210 222 260 287 303 310 326 329 334 336 328 318 316 319 317 311 306 299 294 287 284 279 273 274 277 281 291 296 292 296 295 299 299 303 305